FW6550 Weather Reports


time (UTC)temp
F
wind
direction
speed
knots
gust
knots
rain 1hr
in
rain 24hr
in
rain mn
in
humidity
%
barometer
mb
20260831064022 77 0 0.0 0.0 0.00 0.00 0.00 69 1017.9
20260831063521 78 0 0.0 0.0 0.00 0.00 0.00 69 1018.0
20260831063042 78 0 0.0 0.0 0.00 0.00 0.00 69 1018.1
20260831062524 78 0 0.0 0.0 0.00 0.00 0.00 70 1018.0
20260831062022 78 0 0.0 0.0 0.00 0.00 0.00 71 1018.1
20260831061542 78 0 0.0 0.0 0.00 0.00 0.00 71 1018.1
20260831061024 78 0 0.0 0.0 0.00 0.00 0.00 72 1018.1
20260831060521 78 0 0.0 0.0 0.00 0.00 0.00 72 1018.2
20260831060044 78 0 0.0 0.0 0.00 0.00 0.00 72 1018.2
20260831055522 78 0 0.0 0.0 0.00 0.00 0.00 72 1018.3
20260831055022 79 0 0.0 0.0 0.00 0.00 0.00 73 1018.3
20260831054543 79 0 0.0 0.0 0.00 0.00 0.00 73 1018.2
20260831054022 79 0 0.0 0.0 0.00 0.00 0.00 73 1018.1
20260831053521 79 0 0.0 0.0 0.00 0.00 0.00 74 1018.3
20260831053042 79 0 0.0 0.0 0.00 0.00 0.00 74 1018.4
20260831052520 79 0 0.0 0.0 0.00 0.00 0.00 74 1018.3
20260831052025 79 0 0.0 0.0 0.00 0.00 0.00 74 1018.4
20260831051546 79 0 0.0 0.0 0.00 0.00 0.00 74 1018.2
20260831051023 79 0 0.0 0.0 0.00 0.00 0.00 74 1018.2
20260831050522 80 0 0.0 0.0 0.00 0.00 0.00 74 1018.1
20260831050045 80 0 0.0 0.0 0.00 0.00 0.00 74 1018.2
20260831045518 80 0 0.0 0.0 0.00 0.00 0.00 74 1018.2
20260831045021 80 0 0.0 0.0 0.00 0.00 0.00 74 1018.1
20260831044541 80 0 0.0 0.0 0.00 0.00 0.00 74 1018.0
20260831044020 80 0 0.0 0.0 0.00 0.00 0.00 74 1018.1
20260831043519 80 0 0.0 0.0 0.00 0.00 0.00 74 1018.1
20260831043042 80 0 0.0 0.0 0.00 0.00 0.00 74 1018.1
20260831042523 81 0 0.0 0.0 0.00 0.00 0.00 74 1018.1
20260831042024 81 0 0.0 0.0 0.00 0.00 0.00 74 1018.2
20260831041600 81 0 0.0 0.0 0.00 0.00 0.00 74 1018.2
20260831041024 81 0 0.0 0.0 0.00 0.00 0.00 74 1018.2
20260831040521 81 0 0.0 0.0 0.00 0.00 0.00 74 1018.1
20260831040044 81 0 0.0 0.0 0.00 0.00 0.00 74 1018.2
20260831035518 81 0 0.0 0.0 0.00 0.00 0.00 74 1018.1
20260831035018 82 0 0.0 0.0 0.00 0.00 0.00 74 1018.3
20260831034542 82 0 0.0 1.7 0.00 0.00 0.00 74 1018.3
20260831034021 82 0 0.0 1.7 0.00 0.00 0.00 73 1018.3
20260831033520 82 0 0.0 1.7 0.00 0.00 0.00 73 1018.4
20260831033043 82 0 0.0 3.5 0.00 0.00 0.00 73 1018.2
20260831032522 82 0 0.0 3.5 0.00 0.00 0.00 73 1018.3
20260831032020 82 0 0.0 0.9 0.00 0.00 0.00 73 1018.4
20260831031544 82 0 0.0 0.0 0.00 0.00 0.00 72 1018.3
20260831031018 83 0 0.0 0.9 0.00 0.00 0.00 72 1018.3
20260831030517 83 0 0.0 0.9 0.00 0.00 0.00 72 1018.4
20260831030044 83 0 0.0 0.9 0.00 0.00 0.00 72 1018.4
20260831025520 83 0 0.0 0.9 0.00 0.00 0.00 72 1018.4
20260831025022 83 0 0.0 0.9 0.00 0.00 0.00 71 1018.2
20260831024552 83 0 0.0 0.9 0.00 0.00 0.00 71 1018.2
20260831024024 83 0 0.0 0.0 0.00 0.00 0.00 71 1018.2
20260831023521 84 0 0.0 0.9 0.00 0.00 0.00 71 1018.1
20260831023042 84 0 0.0 0.9 0.00 0.00 0.00 70 1018.1
20260831022525 84 0 0.0 0.0 0.00 0.00 0.00 70 1018.2
20260831022019 84 0 0.0 0.0 0.00 0.00 0.00 70 1018.1
20260831021545 84 0 0.0 0.0 0.00 0.00 0.00 69 1018.1
20260831021018 85 0 0.0 0.0 0.00 0.00 0.00 68 1018.0
20260831020520 85 0 0.0 0.0 0.00 0.00 0.00 68 1017.8
20260831020041 85 0 0.0 0.0 0.00 0.00 0.00 68 1018.0
20260831015518 85 0 0.0 0.0 0.00 0.00 0.00 67 1018.0
20260831015021 85 0 0.0 0.0 0.00 0.00 0.00 67 1017.9
20260831014542 86 0 0.0 1.7 0.00 0.00 0.00 66 1018.0
20260831014022 86 0 0.0 1.7 0.00 0.00 0.00 66 1017.9
20260831013521 86 0 0.0 0.0 0.00 0.00 0.00 66 1017.9
20260831013041 86 0 0.0 0.9 0.00 0.00 0.00 65 1017.9
20260831012520 86 0 0.0 1.7 0.00 0.00 0.00 65 1017.6
20260831012020 86 0 0.0 1.7 0.00 0.00 0.00 65 1017.6
20260831011542 87 0 0.0 1.7 0.00 0.00 0.00 64 1017.6
20260831011023 87 0 0.0 0.9 0.00 0.00 0.00 63 1017.6
20260831010526 87 0 0.0 0.9 0.00 0.00 0.00 63 1017.4
20260831010044 87 0 0.0 1.7 0.00 0.00 0.00 62 1017.3
20260831005521 88 0 0.0 1.7 0.00 0.00 0.00 61 1017.4
20260831005021 88 0 0.0 0.0 0.00 0.00 0.00 61 1017.1
20260831004542 88 0 0.0 0.9 0.00 0.00 0.00 60 1017.2
20260831004022 89 0 0.0 0.9 0.00 0.00 0.00 59 1017.2
20260831003518 89 0 0.0 0.9 0.00 0.00 0.00 59 1017.2
20260831003047 89 0 0.0 1.7 0.00 0.00 0.00 58 1017.1
20260831002520 89 0 0.0 2.6 0.00 0.00 0.00 58 1017.2
20260831002025 90 0 0.0 2.6 0.00 0.00 0.00 57 1017.2
20260831001544 91 0 0.9 2.6 0.00 0.00 0.00 56 1017.2
20260831001022 91 59 0.0 2.6 0.00 0.00 0.00 56 1017.2
20260831000523 92 0 0.0 0.9 0.00 0.00 0.00 55 1017.3
20260831000057 92 0 0.0 0.9 0.00 0.00 0.00 55 1017.1
20260830235521 92 0 0.0 0.9 0.00 0.00 0.00 54 1017.0
20260830235021 92 0 0.0 0.0 0.00 0.00 0.00 54 1017.0
20260830234547 93 0 0.0 0.0 0.00 0.00 0.00 54 1017.0
20260830234027 93 0 0.0 0.0 0.00 0.00 0.00 54 1017.0
20260830233518 93 0 0.0 0.9 0.00 0.00 0.00 53 1017.0
20260830233041 93 0 0.0 0.9 0.00 0.00 0.00 52 1017.1
20260830232518 93 0 0.0 0.9 0.00 0.00 0.00 51 1017.0
20260830232024 93 0 0.0 0.9 0.00 0.00 0.00 51 1017.1
20260830231542 93 82 0.0 2.6 0.00 0.00 0.00 51 1017.0
20260830231017 93 0 0.0 2.6 0.00 0.00 0.00 51 1017.0
20260830230517 93 82 0.0 2.6 0.00 0.00 0.00 51 1016.9
20260830230042 93 80 0.0 1.7 0.00 0.00 0.00 51 1017.0
20260830225521 93 0 0.0 2.6 0.00 0.00 0.00 50 1016.9
20260830225020 94 0 0.0 2.6 0.00 0.00 0.00 50 1016.8
20260830224548 94 0 0.0 2.6 0.00 0.00 0.00 51 1016.8
20260830224018 94 0 0.0 2.6 0.00 0.00 0.00 51 1016.7
20260830223520 94 0 0.0 2.6 0.00 0.00 0.00 49 1016.7
20260830223054 94 0 0.0 2.6 0.00 0.00 0.00 49 1016.7
20260830222522 94 0 0.0 2.6 0.00 0.00 0.00 49 1016.8
20260830222024 94 56 0.0 2.6 0.00 0.00 0.00 49 1016.7
20260830221549 94 56 0.0 2.6 0.00 0.00 0.00 49 1016.9
20260830221018 94 95 0.0 2.6 0.00 0.00 0.00 49 1016.8
20260830220520 94 0 0.0 2.6 0.00 0.00 0.00 49 1016.9
20260830220044 94 0 0.0 2.6 0.00 0.00 0.00 49 1017.0
20260830215518 94 0 0.0 3.5 0.00 0.00 0.00 50 1016.9
20260830215021 94 0 0.0 3.5 0.00 0.00 0.00 48 1016.9
20260830214541 94 0 0.9 5.2 0.00 0.00 0.00 51 1016.9
20260830214023 94 0 0.9 5.2 0.00 0.00 0.00 51 1017.1
20260830213523 94 0 0.9 5.2 0.00 0.00 0.00 53 1017.1
20260830213045 94 191 0.0 4.3 0.00 0.00 0.00 53 1017.1
20260830212519 94 162 0.9 4.3 0.00 0.00 0.00 52 1017.0
20260830212019 94 110 0.0 2.6 0.00 0.00 0.00 52 1017.1
20260830211541 93 0 0.0 2.6 0.00 0.00 0.00 52 1017.2
20260830211019 94 68 0.0 2.6 0.00 0.00 0.00 51 1017.2
20260830210520 93 69 0.0 3.5 0.00 0.00 0.00 51 1017.1
20260830210041 93 29 0.0 3.5 0.00 0.00 0.00 53 1017.2
20260830205523 93 0 0.9 5.2 0.00 0.00 0.00 51 1017.3
20260830205023 93 0 0.0 5.2 0.00 0.00 0.00 52 1017.3
20260830204542 93 37 0.9 5.2 0.00 0.00 0.00 52 1017.3
20260830204021 93 21 0.0 4.3 0.00 0.00 0.00 51 1017.5
20260830203520 93 0 0.0 4.3 0.00 0.00 0.00 51 1017.5
20260830203051 94 46 0.0 2.6 0.00 0.00 0.00 51 1017.6
20260830202520 94 0 0.0 2.6 0.00 0.00 0.00 51 1017.7
20260830202023 95 62 0.9 2.6 0.00 0.00 0.00 51 1017.7
20260830201554 95 51 0.0 3.5 0.00 0.00 0.00 52 1017.7
20260830201024 95 44 0.9 4.3 0.00 0.00 0.00 53 1017.8
20260830200520 95 82 0.0 4.3 0.00 0.00 0.00 52 1017.8
20260830200053 96 11 0.9 4.3 0.00 0.00 0.00 49 1017.9
20260830195524 96 0 0.0 2.6 0.00 0.00 0.00 51 1017.8
20260830195052 96 0 0.0 2.6 0.00 0.00 0.00 51 1018.0
20260830194540 96 0 0.9 3.5 0.00 0.00 0.00 51 1017.9
20260830194024 96 140 0.9 3.5 0.00 0.00 0.00 54 1018.1
20260830193517 96 0 0.0 4.3 0.00 0.00 0.00 51 1018.2
20260830193041 96 63 0.0 4.3 0.00 0.00 0.00 53 1018.4
20260830192521 97 0 0.0 2.6 0.00 0.00 0.00 54 1018.4
20260830192018 97 200 0.0 2.6 0.00 0.00 0.00 51 1018.5
20260830191549 97 0 0.0 2.6 0.00 0.00 0.00 51 1018.5
20260830191022 97 167 0.0 3.5 0.00 0.00 0.00 53 1018.6
20260830190519 97 152 0.0 3.5 0.00 0.00 0.00 55 1018.8
20260830190047 96 244 0.9 3.5 0.00 0.00 0.00 53 1018.8
20260830185523 96 220 0.0 3.5 0.00 0.00 0.00 54 1018.8
20260830185017 95 176 0.0 3.5 0.00 0.00 0.00 54 1019.0
20260830184539 95 10 0.9 3.5 0.00 0.00 0.00 52 1019.0
20260830184017 95 95 0.0 3.5 0.00 0.00 0.00 57 1019.1
20260830183520 95 84 0.0 3.5 0.00 0.00 0.00 54 1019.1
20260830183042 95 49 0.9 7.0 0.00 0.00 0.00 54 1019.1
20260830182519 94 0 0.0 7.0 0.00 0.00 0.00 59 1019.1
20260830182021 94 255 0.9 4.3 0.00 0.00 0.00 56 1019.3
20260830181543 93 215 0.9 3.5 0.00 0.00 0.00 61 1019.4
20260830181019 93 0 0.0 3.5 0.00 0.00 0.00 59 1019.5
20260830180525 92 166 0.0 6.1 0.00 0.00 0.00 57 1019.7
20260830180053 93 48 1.7 6.1 0.00 0.00 0.00 56 1019.8
20260830175520 92 0 0.0 2.6 0.00 0.00 0.00 61 1019.9
20260830175020 92 80 0.0 4.3 0.00 0.00 0.00 61 1019.9
20260830174552 92 15 0.0 4.3 0.00 0.00 0.00 58 1020.0
20260830174020 92 0 0.9 3.5 0.00 0.00 0.00 57 1020.0
20260830173520 92 0 0.0 4.3 0.00 0.00 0.00 59 1020.0
20260830173058 92 0 0.0 4.3 0.00 0.00 0.00 58 1020.2
20260830172518 92 117 0.0 2.6 0.00 0.00 0.00 58 1020.2
20260830172024 92 19 0.0 3.5 0.00 0.00 0.00 59 1020.3
20260830171542 92 21 0.0 3.5 0.00 0.00 0.00 57 1020.2
20260830171020 92 331 0.9 4.3 0.00 0.00 0.00 60 1020.2
20260830170522 91 0 0.9 4.3 0.00 0.00 0.00 57 1020.3
20260830170042 91 0 0.9 4.3 0.00 0.00 0.00 58 1020.4
20260830165523 91 0 0.0 5.2 0.00 0.00 0.00 61 1020.6
20260830165017 90 0 0.0 6.1 0.00 0.00 0.00 59 1020.6
20260830164555 90 69 0.9 6.1 0.00 0.00 0.00 59 1020.5
20260830164021 91 134 0.9 4.3 0.00 0.00 0.00 60 1020.7
20260830163529 92 5 0.9 3.5 0.00 0.00 0.00 59 1020.7
20260830163058 92 288 0.0 2.6 0.00 0.00 0.00 60 1020.6
20260830162522 92 0 0.0 6.1 0.00 0.00 0.00 59 1020.7
20260830162021 92 83 0.0 6.1 0.00 0.00 0.00 63 1020.7
20260830161542 91 131 0.9 6.1 0.00 0.00 0.00 63 1020.7
20260830161021 91 122 0.0 4.3 0.00 0.00 0.00 62 1020.6
20260830160525 91 0 0.0 4.3 0.00 0.00 0.00 64 1020.7
20260830160045 91 137 0.0 3.5 0.00 0.00 0.00 64 1020.8
20260830155523 90 48 0.0 3.5 0.00 0.00 0.00 66 1020.7
20260830155020 90 0 0.9 3.5 0.00 0.00 0.00 64 1020.8
20260830154545 90 0 0.0 4.3 0.00 0.00 0.00 70 1020.8
20260830154024 89 0 0.9 4.3 0.00 0.00 0.00 66 1020.9
20260830153524 89 0 0.9 4.3 0.00 0.00 0.00 67 1020.9
20260830153050 89 24 0.0 3.5 0.00 0.00 0.00 69 1020.8
20260830152521 88 170 0.0 3.5 0.00 0.00 0.00 70 1020.8
20260830152021 88 0 0.0 5.2 0.00 0.00 0.00 70 1021.0
20260830151544 87 226 0.0 5.2 0.00 0.00 0.00 69 1020.9
20260830151023 87 135 0.0 3.5 0.00 0.00 0.00 70 1021.1
20260830150519 87 0 0.0 3.5 0.00 0.00 0.00 69 1021.0
20260830150042 87 0 0.9 3.5 0.00 0.00 0.00 70 1020.9
20260830145520 87 0 0.9 3.5 0.00 0.00 0.00 69 1021.0
20260830145020 88 44 0.0 3.5 0.00 0.00 0.00 70 1020.9
20260830144546 88 42 0.0 1.7 0.00 0.00 0.00 72 1020.9
20260830144028 87 124 0.0 1.7 0.00 0.00 0.00 72 1021.1
20260830143523 87 0 0.0 1.7 0.00 0.00 0.00 71 1020.9
20260830143044 86 34 0.0 2.6 0.00 0.00 0.00 73 1021.0
20260830142518 86 0 0.0 2.6 0.00 0.00 0.00 73 1021.0
20260830142020 86 32 0.0 4.3 0.00 0.00 0.00 73 1021.0
20260830141541 86 30 0.0 4.3 0.00 0.00 0.00 73 1021.0
20260830141020 86 0 0.0 3.5 0.00 0.00 0.00 72 1020.9
20260830140520 86 187 0.0 3.5 0.00 0.00 0.00 73 1020.8
20260830140042 85 188 0.0 3.5 0.00 0.00 0.00 73 1020.7
20260830135523 85 0 0.0 1.7 0.00 0.00 0.00 74 1020.7
20260830135024 85 0 0.0 1.7 0.00 0.00 0.00 74 1020.8
20260830134542 84 0 0.0 1.7 0.00 0.00 0.00 73 1020.7
20260830134020 83 80 0.0 1.7 0.00 0.00 0.00 72 1020.6
20260830133518 83 81 0.0 1.7 0.00 0.00 0.00 71 1020.4
20260830133040 82 82 0.0 1.7 0.00 0.00 0.00 68 1020.6
20260830132520 81 0 0.0 1.7 0.00 0.00 0.00 65 1020.6
20260830132020 80 0 0.0 0.9 0.00 0.00 0.00 57 1020.6
20260830131545 79 0 0.0 1.7 0.00 0.00 0.00 52 1020.6
20260830131024 78 0 0.0 1.7 0.00 0.00 0.00 42 1020.7
20260830130520 77 60 0.0 0.9 0.00 0.00 0.00 31 1020.6
20260830130043 77 0 0.0 0.9 0.00 0.00 0.00 25 1020.6
20260830125519 76 0 0.0 0.9 0.00 0.00 0.00 21 1020.5
20260830125018 76 0 0.0 0.9 0.00 0.00 0.00 15 1020.6
20260830124542 75 0 0.0 0.9 0.00 0.00 0.00 11 1020.6
20260830124020 75 0 0.0 0.9 0.00 0.00 0.00 7 1020.4
20260830123524 74 0 0.0 0.0 0.00 0.00 0.00 3 1020.3
20260830123043 74 0 0.0 0.0 0.00 0.00 0.00 3 1020.3
20260830122522 74 0 0.0 0.0 0.00 0.00 0.00 3 1020.1
20260830122021 74 0 0.0 0.9 0.00 0.00 0.00 2 1020.3
20260830121542 74 0 0.0 0.9 0.00 0.00 0.00 1 1020.1
20260830121022 74 0 0.0 0.0 0.00 0.00 0.00 1 1020.2
20260830120521 74 0 0.0 0.0 0.00 0.00 0.00 3 1020.2
20260830120045 74 0 0.0 0.0 0.00 0.00 0.00 5 1020.1
20260830115519 74 0 0.0 0.0 0.00 0.00 0.00 6 1020.2
20260830115024 74 0 0.0 0.0 0.00 0.00 0.00 7 1020.1
20260830114541 74 0 0.0 0.0 0.00 0.00 0.00 10 1020.1
20260830114019 74 0 0.0 0.0 0.00 0.00 0.00 11 1020.0
20260830113517 74 0 0.0 0.0 0.00 0.00 0.00 12 1020.0
20260830113038 74 0 0.0 0.0 0.00 0.00 0.00 12 1020.0
20260830112523 74 0 0.0 0.0 0.00 0.00 0.00 11 1019.9
20260830112021 74 0 0.0 0.0 0.00 0.00 0.00 12 1019.8
20260830111541 74 0 0.0 0.0 0.00 0.00 0.00 12 1019.9
20260830111020 74 0 0.0 0.0 0.00 0.00 0.00 15 1019.7
20260830110520 74 0 0.0 0.0 0.00 0.00 0.00 15 1019.7
20260830110043 74 0 0.0 0.0 0.00 0.00 0.00 15 1019.6
20260830105520 74 0 0.0 0.0 0.00 0.00 0.00 16 1019.6
20260830105020 74 0 0.0 0.0 0.00 0.00 0.00 17 1019.6
20260830104540 75 0 0.0 0.0 0.00 0.00 0.00 18 1019.7
20260830104021 75 0 0.0 0.0 0.00 0.00 0.00 19 1019.5
20260830103521 75 0 0.0 0.0 0.00 0.00 0.00 18 1019.3
20260830103039 75 0 0.0 0.0 0.00 0.00 0.00 18 1019.2
20260830102520 75 0 0.0 0.0 0.00 0.00 0.00 19 1019.2
20260830102020 75 0 0.0 0.0 0.00 0.00 0.00 21 1019.2
20260830101542 75 0 0.0 0.0 0.00 0.00 0.00 20 1019.1
20260830101020 75 0 0.0 0.0 0.00 0.00 0.00 19 1019.1
20260830100517 75 0 0.0 0.0 0.00 0.00 0.00 19 1018.9
20260830095525 75 0 0.0 0.0 0.00 0.00 0.00 22 1018.7
20260830095018 75 0 0.0 0.0 0.00 0.00 0.00 22 1018.7
20260830094540 75 0 0.0 0.0 0.00 0.00 0.00 25 1018.8
20260830094024 75 0 0.0 0.0 0.00 0.00 0.00 26 1018.9
20260830093521 75 0 0.0 0.0 0.00 0.00 0.00 27 1018.7
20260830093041 75 0 0.0 0.0 0.00 0.00 0.00 26 1018.8
20260830092518 75 0 0.0 0.0 0.00 0.00 0.00 26 1018.7
20260830092018 75 0 0.0 0.0 0.00 0.00 0.00 26 1018.7
20260830091539 75 0 0.0 0.0 0.00 0.00 0.00 27 1018.9
20260830091019 75 0 0.0 0.0 0.00 0.00 0.00 27 1018.8
20260830090518 75 0 0.0 0.0 0.00 0.00 0.00 29 1018.8
20260830090037 75 0 0.0 0.0 0.00 0.00 0.00 30 1018.8
20260830085522 75 0 0.0 0.0 0.00 0.00 0.00 30 1018.7
20260830085018 75 0 0.0 0.0 0.00 0.00 0.00 32 1018.9
20260830084542 75 0 0.0 0.0 0.00 0.00 0.00 33 1018.7
20260830084022 75 0 0.0 0.0 0.00 0.00 0.00 37 1018.8
20260830083521 75 0 0.0 0.0 0.00 0.00 0.00 37 1018.7
20260830083046 76 0 0.0 0.0 0.00 0.00 0.00 37 1018.6
20260830082520 76 0 0.0 0.0 0.00 0.00 0.00 36 1018.5
20260830082017 76 0 0.0 0.0 0.00 0.00 0.00 39 1018.7
20260830081543 76 0 0.0 0.0 0.00 0.00 0.00 40 1018.5
20260830081022 76 0 0.0 0.0 0.00 0.00 0.00 39 1018.4
20260830080524 76 0 0.0 0.0 0.00 0.00 0.00 41 1018.4
20260830080037 76 0 0.0 0.0 0.00 0.00 0.00 43 1018.3
20260830075524 76 0 0.0 0.0 0.00 0.00 0.00 46 1018.4
20260830075021 76 0 0.0 0.0 0.00 0.00 0.00 45 1018.5
20260830074541 76 0 0.0 0.0 0.00 0.00 0.00 46 1018.5
20260830074020 76 0 0.0 0.0 0.00 0.00 0.00 46 1018.5
20260830073520 76 0 0.0 0.0 0.00 0.00 0.00 48 1018.5
20260830073046 76 0 0.0 0.0 0.00 0.00 0.00 51 1018.6
20260830072519 77 0 0.0 0.0 0.00 0.00 0.00 51 1018.5
20260830072022 77 0 0.0 0.0 0.00 0.00 0.00 51 1018.5
20260830071540 77 0 0.0 0.0 0.00 0.00 0.00 52 1018.7
20260830071021 77 0 0.0 0.0 0.00 0.00 0.00 55 1018.7
20260830070522 77 0 0.0 0.0 0.00 0.00 0.00 57 1018.9
20260830070042 77 0 0.0 0.0 0.00 0.00 0.00 56 1018.9
20260830065517 77 0 0.0 0.0 0.00 0.00 0.00 58 1018.8
20260830065020 77 0 0.0 0.0 0.00 0.00 0.00 58 1018.7
20260830064541 77 0 0.0 0.0 0.00 0.00 0.00 59 1018.8